Regional Weather Roundup
Issued by NWS

Home | Current Version | Previous Version | Text Only | Print | Product List | Glossary On
Versions: 1 2 3 4 5 6 7 8 9 10 11 12 13 14 15 16 17 18 19 20 21 22 23 24 25 26 27 28 29 30 31 32 33 34 35 36 37 38 39 40 41 42 43 44 45 46 47 48 49 50
000
ASUS44 KMEG 202110
RWRTN
TENNESSEE HOURLY STATE WEATHER ROUNDUP
NATIONAL WEATHER SERVICE MEMPHIS TN
300 PM CST SAT DEC 20 2014

TNZ002-004-019-021-049-052-054-088>092-202200-
WEST TENNESSEE

CITY           SKY/WX    TMP DP  RH WIND       PRES   REMARKS
MEMPHIS INTL   CLOUDY    50  33  52 NE7       30.22S
NWS MEMPHIS      N/A     49 N/A N/A MISG        N/A
JACKSON        SUNNY     50  30  46 NE3       30.22S
DYERSBURG      MOSUNNY   46  25  42 NE5       30.25S
UNION CITY     MOSUNNY   43  30  61 CALM      30.23R
PARIS          SUNNY     41  28  60 E6        30.23S
HUNTINGDON     SUNNY     42  28  58 E5        30.24S
LEXINGTON      CLOUDY    45  28  53 NE3       30.21S
SAVANNAH       SUNNY     52  30  43 NW5       30.20F
$$

TNZ008-025-027-028-033-062-065-066-202200-
NORTH MIDDLE TENNESSEE

CITY           SKY/WX    TMP DP  RH WIND       PRES   REMARKS
NASHVILLE      PTSUNNY   45  27  49 NW6       30.23S
CLARKSVILLE    CLOUDY    41  28  60 NE3       30.25R
SMYRNA         CLOUDY    46  29  52 N7        30.23S
COOKEVILLE     SUNNY     46  28  49 NE5       30.19S
CROSSVILLE     CLOUDY    46  30  53 NW6       30.17R
$$

TNZ061-075-076-078-094-096-097-202200-
SOUTH MIDDLE TENNESSEE

CITY           SKY/WX    TMP DP  RH WIND       PRES   REMARKS
FAYETTEVILLE   SUNNY     46  28  49 MISG      30.18R
TULLAHOMA      SUNNY     48  27  43 NE8       30.19S
WINCHESTER     SUNNY     48  30  49 NE9       30.18S
MCMINNVILLE    SUNNY     48  28  46 CALM      30.19S
SHELBYVILLE    SUNNY     48  30  49 N8        30.21R
$$

TNZ017-018-042-046-047-202200-
NORTHEAST TENNESSEE

CITY           SKY/WX    TMP DP  RH WIND       PRES   REMARKS
TRI CITIES     CLOUDY    42  36  79 W3        30.18R
ELIZABETHTON   CLOUDY    39  34  81 W6        30.17R WCI  35
$$

TNZ012-013-036-069-073-074-202200-
CENTRAL EAST TENNESSEE

CITY           SKY/WX    TMP DP  RH WIND       PRES   REMARKS
KNOXVILLE      CLOUDY    43  33  68 CALM      30.20R
OAK RIDGE      CLOUDY    47  32  56 S3        30.20S
GATLINBURG     CLOUDY    39  36  87 CALM      30.19R
MORRISTOWN     CLOUDY    43  36  75 CALM      30.19R
$$

TNZ083-085-099-202200-
SOUTHEAST TENNESSEE

CITY           SKY/WX    TMP DP  RH WIND       PRES   REMARKS
CHATTANOOGA    MOSUNNY   49  33  54 NE3       30.18F
$$

SKY/WX REPORTED AS FAIR MEANS FEW OR NO CLOUDS BELOW
12 THOUSAND FEET.



USA.gov is the U.S. government's official web portal to all federal, state and local government web resources and services.